[[{"header":{"parameterUnit":"m.s-1","parameterCategory":1,"la1":30.2991,"la2":30.254,"lo1":-89.0895,"lo2":-89.0444,"dy":0.0017,"dx":0.0017,"nx":28,"ny":28,"refTime":"2024-06-24T09:00:00:Z","depth":0,"parameterNumber":2,"parameterNumberName":"U-component_of_WINDS"},"data":[0,0,0,0,0,0,0,0,0,0,0,0,0,0,0,0,0,0,0,0,0,0,0,0,0,0,0,0,0,0,0,0,0,0,0,0,0,0,0,0,0,0,0,0,0,0,0,0,0,0,0,0,0,0,0,0,0,0,2.5184,2.5186,0,2.5362,2.5364,2.5366,2.5386,2.5384,2.5382,2.538,2.5565,2.5571,2.5578,0,0,0,0,0,0,0,0,0,0,0,0,0,2.4866,2.4872,2.5184,2.5187,2.5189,2.5362,2.5364,2.5367,2.5386,2.5384,2.5382,2.538,2.5563,2.557,2.5578,0,0,0,0,0,0,0,0,0,0,0,0,0,2.502,2.4873,2.5184,2.5219,2.5224,2.5361,2.5364,2.5367,2.5387,2.5384,2.5381,2.5379,2.556,2.557,2.5579,2.5694,0,0,2.5609,2.5614,0,0,0,0,0,0,0,0,2.5011,2.5032,2.5212,2.5217,2.5223,2.5349,2.5319,2.5477,2.5387,2.5325,2.538,2.5377,2.5495,2.551,2.555,2.5703,2.5711,2.561,2.5616,2.5621,2.5623,0,0,0,0,0,0,0,2.5,2.5024,2.5255,2.5214,2.5221,2.5228,2.5246,2.5349,2.5423,2.533,2.5332,2.5353,2.5498,2.554,2.5554,2.5713,2.561,2.5619,2.5625,2.5629,2.5972,2.5975,0,0,0,0,0,0,2.4983,2.5015,2.5249,2.526,2.5108,2.5235,2.5257,2.5311,2.5422,2.5436,2.5355,2.5353,2.5524,2.5543,2.5561,2.5703,2.562,2.563,2.5635,2.5969,2.5973,2.5976,0,0,0,0,0,0,2.4976,2.5003,2.5242,2.5138,2.5169,2.5244,2.5305,2.5316,2.5358,2.5441,2.5454,2.5384,2.5523,2.5547,2.5661,2.571,2.5634,2.5643,2.5965,2.597,2.5974,2.5989,0,0,0,0,0,0,2.4967,2.5001,2.5044,2.5139,2.5174,2.5338,2.5308,2.5322,2.5375,2.5374,2.5472,2.5485,2.5523,2.5646,2.5671,2.5722,2.5651,2.5961,2.5967,2.5973,2.5984,2.5993,2.6001,0,0,0,0,0,2.4955,2.5041,2.5046,2.5074,2.523,2.5341,2.5361,2.5402,2.5379,2.5424,2.5477,2.5482,2.5701,2.5658,2.5686,2.5741,2.5958,2.5965,2.5972,2.598,2.5992,2.6001,0,0,0,0,0,0,2.495,2.5054,2.5061,2.518,2.5251,2.5344,2.5401,2.5412,2.5492,2.5488,2.5536,2.5558,2.5671,2.5717,2.5668,2.5859,2.5827,2.584,2.5824,2.5835,2.5844,2.583,2.5659,0,0,0,0,0,2.4963,2.5043,2.513,2.5227,2.5263,2.5326,2.5376,2.5401,2.5477,2.5508,2.5569,2.5644,2.573,2.5785,2.5869,2.5991,2.6014,2.6043,2.6052,2.6058,2.6069,2.614,2.6154,2.6,2.6,2.5999,0,0,2.499,2.5057,2.5105,2.5228,2.5286,2.537,2.5351,2.544,2.5503,2.5522,2.5633,2.5681,2.5768,2.5888,2.5943,2.593,2.6117,2.6068,2.6072,2.608,2.6148,2.6163,2.6176,2.6004,2.6004,2.6003,0,0,2.5082,2.514,2.5228,2.5287,2.5376,2.5418,2.5439,2.5531,2.5563,2.5676,2.5692,2.5769,2.5915,2.5977,2.6027,2.6145,2.6154,2.6171,2.6216,2.6284,2.6296,2.6307,2.635,2.6365,2.6182,2.6182,2.6182,0,2.5105,2.523,2.5272,2.5361,2.5415,2.5436,2.5526,2.5582,2.5693,2.5731,2.5714,2.59,2.5959,2.6094,2.6123,2.6163,2.619,2.616,2.629,2.6302,2.6313,2.6355,2.6371,2.6183,2.6183,2.6183,2.6183,0,2.5254,2.5341,2.5402,2.5509,2.557,2.5659,2.5716,2.5773,2.5794,2.5838,2.5954,2.6027,2.6126,2.616,2.6181,2.6299,2.6288,2.628,2.625,2.6329,2.6369,2.6385,2.6185,2.6185,2.6184,2.6184,0,0,2.5347,2.5477,2.5498,2.5548,2.5649,2.5717,2.5808,2.5905,2.5954,2.6031,2.6109,2.6234,2.6228,2.6285,2.6314,2.6373,2.6464,2.6359,2.6362,2.6377,2.66,2.6605,2.6623,2.6471,2.6474,2.6476,2.6593,0,2.5451,2.5612,2.5653,2.5791,2.5873,2.5896,2.5975,2.6046,2.6091,2.6168,2.6217,2.6305,2.629,2.6325,2.6385,2.644,2.651,2.6432,2.6545,2.6549,2.6523,2.6644,2.665,2.6756,2.6609,2.6612,2.6614,0,2.5593,2.5673,2.5819,2.5911,2.5947,2.6017,2.611,2.6183,2.6265,2.6294,2.6359,2.6382,2.6479,2.6444,2.658,2.6526,2.6576,2.661,2.6615,2.6627,2.6586,2.666,2.6791,2.6807,2.6639,2.6637,2.6635,0,2.5646,2.5791,2.5898,2.5939,2.6049,2.6098,2.6146,2.6225,2.6282,2.6364,2.6401,2.6493,2.6544,2.6616,2.6664,2.6634,2.6797,2.6765,2.6824,2.6823,2.6857,2.6854,2.6998,2.6888,2.6888,2.6887,2.6887,0,2.5758,2.5847,2.5923,2.5989,2.609,2.6137,2.6236,2.6285,2.6356,2.6433,2.6458,2.653,2.6589,2.667,2.6708,2.6816,2.6839,2.6865,2.6875,2.6863,2.686,2.6896,2.689,2.6892,2.6891,2.689,2.6889,0,2.5835,2.5889,2.6007,2.6101,2.6127,2.6198,2.6279,2.6345,2.639,2.6487,2.6513,2.6585,2.6681,2.6737,2.6858,2.6884,2.7004,2.701,2.6976,2.698,2.7037,2.7031,2.7209,2.7236,2.7107,2.7108,2.7109,0,2.5902,2.5971,2.6073,2.6126,2.6175,2.626,2.6318,2.6368,2.6427,2.6527,2.6581,2.6679,2.6759,2.6912,2.6977,2.707,2.7079,2.7135,2.7093,2.708,2.7081,2.7076,2.7084,2.7142,2.7143,2.7144,2.7145,0,2.6017,2.6041,2.6123,2.6215,2.6283,2.6358,2.6432,2.6475,2.6538,2.6604,2.6702,2.6765,2.6889,2.6986,2.7086,2.7137,2.7152,2.7158,2.7176,2.7166,2.7144,2.7157,2.6996,2.7153,2.7152,2.7152,2.7151,2.7151,2.6092,2.6155,2.6237,2.6328,2.6389,2.6459,2.6525,2.658,2.6663,2.6767,2.6793,2.6897,2.698,2.7114,2.7168,2.7251,2.7242,2.7269,2.7276,2.7282,2.7284,2.713,2.727,2.727,2.7269,2.7269,2.7269,0,2.6208,2.6263,2.6346,2.645,2.6522,2.653,2.6613,2.6673,2.6764,2.684,2.6919,2.7033,2.7129,2.7201,2.7299,2.7352,2.7361,2.7376,2.7373,2.7385,2.7286,2.7261,2.7366,2.7366,2.7366,2.7366,2.7366,2.7366,2.6277,2.6385,2.6419,2.6558,2.6613,2.6714,2.6761,2.6827,2.6887,2.7014,2.7093,2.7139,2.7214,2.7318,2.7406,2.7426,2.7461,2.7474,2.7495,2.7402,2.7391,2.7381,2.7357,2.7481,2.7481,2.7586,2.7587,2.7588]},{"header":{"parameterUnit":"m.s-1","parameterCategory":1,"la1":30.2991,"la2":30.254,"lo1":-89.0895,"lo2":-89.0444,"dy":0.0017,"dx":0.0017,"nx":28,"ny":28,"refTime":"2024-06-24T09:00:00:Z","depth":0,"parameterNumber":3,"parameterNumberName":"V-component_of_WINDS"},"data":[0,0,0,0,0,0,0,0,0,0,0,0,0,0,0,0,0,0,0,0,0,0,0,0,0,0,0,0,0,0,0,0,0,0,0,0,0,0,0,0,0,0,0,0,0,0,0,0,0,0,0,0,0,0,0,0,0,0,3.7543,3.7546,0,3.7752,3.7754,3.7757,3.7779,3.7777,3.7775,3.7773,3.7982,3.7989,3.7997,0,0,0,0,0,0,0,0,0,0,0,0,0,3.716,3.7167,3.7543,3.7546,3.7548,3.7752,3.7755,3.7757,3.7779,3.7777,3.7774,3.7772,3.7979,3.7988,3.7997,0,0,0,0,0,0,0,0,0,0,0,0,0,3.7343,3.7169,3.7543,3.7584,3.759,3.7751,3.7755,3.7758,3.778,3.7777,3.7773,3.777,3.7976,3.7987,3.7999,3.8132,0,0,3.8033,3.8038,0,0,0,0,0,0,0,0,3.7333,3.7357,3.7575,3.7581,3.7588,3.7736,3.7696,3.7883,3.7781,3.7707,3.7773,3.7769,3.7902,3.792,3.7966,3.8142,3.8151,3.8034,3.8041,3.8046,3.8049,0,0,0,0,0,0,0,3.732,3.7348,3.7626,3.7578,3.7586,3.7591,3.7613,3.7732,3.782,3.7714,3.7716,3.774,3.7905,3.7955,3.7971,3.8154,3.8034,3.8044,3.8051,3.8055,3.8452,3.8456,0,0,0,0,0,0,3.73,3.7338,3.7619,3.7632,3.745,3.76,3.7626,3.7692,3.7819,3.7835,3.7743,3.7741,3.7937,3.7957,3.7978,3.8145,3.8046,3.8056,3.8063,3.8448,3.8453,3.8457,0,0,0,0,0,0,3.7292,3.7325,3.7611,3.7486,3.7522,3.761,3.7685,3.7698,3.7747,3.7841,3.7856,3.7777,3.7935,3.7962,3.8094,3.8152,3.8062,3.8072,3.8444,3.845,3.8455,3.8477,0,0,0,0,0,0,3.7281,3.7322,3.7374,3.7487,3.7529,3.7724,3.7688,3.7704,3.7767,3.7766,3.7878,3.7893,3.7935,3.8077,3.8106,3.8166,3.8081,3.8439,3.8446,3.8453,3.8472,3.8483,3.8493,0,0,0,0,0,3.7267,3.7371,3.7377,3.7411,3.7596,3.7728,3.7752,3.7799,3.7772,3.7825,3.7885,3.7889,3.8141,3.8091,3.8123,3.8187,3.8436,3.8444,3.8452,3.8467,3.8481,3.8492,0,0,0,0,0,0,3.7261,3.7386,3.7394,3.7538,3.7622,3.7731,3.78,3.7812,3.7905,3.79,3.7953,3.7978,3.8109,3.8161,3.8103,3.8324,3.8285,3.8301,3.8286,3.8299,3.8309,3.8295,3.809,0,0,0,0,0,3.7276,3.7374,3.7477,3.7594,3.7636,3.7711,3.7769,3.7799,3.7888,3.7923,3.7994,3.8079,3.8177,3.8241,3.8336,3.8479,3.8504,3.8539,3.8549,3.8558,3.857,3.8652,3.8669,3.8485,3.8484,3.8484,0,0,3.7309,3.7389,3.7447,3.7595,3.7664,3.7763,3.774,3.7846,3.792,3.7939,3.8069,3.8124,3.8222,3.8361,3.8425,3.8408,3.8627,3.8568,3.8574,3.8583,3.8662,3.8679,3.8695,3.849,3.8489,3.8488,0,0,3.742,3.749,3.7596,3.7666,3.7772,3.7821,3.7846,3.7954,3.7992,3.8124,3.8141,3.8229,3.8397,3.8467,3.8525,3.8664,3.8672,3.8693,3.8748,3.8826,3.8841,3.8854,3.8905,3.8923,3.8705,3.8706,3.8706,0,3.7446,3.7598,3.7648,3.7755,3.7819,3.7843,3.7951,3.8016,3.8146,3.819,3.817,3.8383,3.845,3.8607,3.8641,3.8686,3.8717,3.8681,3.8835,3.8849,3.8862,3.8911,3.893,3.8708,3.8707,3.8707,3.8707,0,3.7627,3.7732,3.7805,3.7933,3.8006,3.8112,3.8177,3.8245,3.8268,3.8319,3.8453,3.8536,3.865,3.8688,3.8711,3.8849,3.8835,3.8824,3.8787,3.8881,3.8928,3.8947,3.8711,3.871,3.8709,3.8709,0,0,3.7739,3.7896,3.7922,3.7981,3.81,3.8182,3.8289,3.8402,3.846,3.8549,3.8641,3.8783,3.8775,3.884,3.8871,3.8939,3.9047,3.892,3.8923,3.8942,3.9205,3.9214,3.9235,3.9052,3.9056,3.9059,3.9198,0,3.7865,3.806,3.8108,3.8273,3.8372,3.8396,3.849,3.8572,3.8623,3.8713,3.8768,3.8869,3.8849,3.8889,3.8958,3.9019,3.91,3.9009,3.9138,3.9142,3.9115,3.926,3.927,3.9397,3.9216,3.9219,3.9222,0,3.8038,3.8134,3.831,3.8418,3.8461,3.8545,3.8653,3.8739,3.8833,3.8865,3.8939,3.8964,3.9076,3.9032,3.9188,3.9125,3.918,3.9218,3.9224,3.9239,3.9189,3.928,3.9438,3.9458,3.9251,3.9249,3.9247,0,3.8105,3.8277,3.8406,3.8456,3.8584,3.8643,3.8699,3.879,3.8856,3.895,3.8994,3.9098,3.9156,3.9237,3.9289,3.9252,3.9441,3.9401,3.9471,3.947,3.9511,3.9508,3.9682,3.9544,3.9544,3.9543,3.9543,0,3.8241,3.8348,3.8438,3.8517,3.8638,3.8692,3.881,3.8866,3.8948,3.9038,3.9064,3.9147,3.921,3.9302,3.9343,3.9467,3.9492,3.9522,3.9532,3.9521,3.9517,3.9559,3.9552,3.9548,3.9547,3.9546,3.9545,0,3.8337,3.8401,3.8543,3.8654,3.8685,3.8769,3.8864,3.8941,3.8993,3.9106,3.9136,3.9217,3.9327,3.9387,3.9523,3.9551,3.969,3.9695,3.966,3.9664,3.9732,3.9726,3.994,3.9971,3.981,3.9812,3.9813,0,3.842,3.8504,3.8625,3.8688,3.8746,3.8847,3.8915,3.8972,3.9041,3.9156,3.922,3.9332,3.9424,3.9599,3.9669,3.9774,3.9782,3.985,3.9798,3.9785,3.9786,3.9781,3.979,3.9859,3.9861,3.9862,3.9863,0,3.8563,3.8591,3.8689,3.8799,3.888,3.8968,3.9056,3.9106,3.9177,3.9253,3.9368,3.944,3.9581,3.9692,3.9803,3.986,3.9874,3.9879,3.9901,3.9891,3.9869,3.9884,3.9686,3.9874,3.9873,3.9872,3.9871,3.9871,3.8656,3.8733,3.8831,3.8939,3.9012,3.9094,3.9173,3.9235,3.9332,3.9453,3.948,3.9601,3.9694,3.9845,3.9905,3.9999,3.9986,4.0018,4.0026,4.0034,4.0038,3.9852,4.0019,4.0019,4.0019,4.0019,4.0019,0,3.8802,3.8867,3.8966,3.9089,3.9175,3.9182,3.928,3.9351,3.9457,3.9544,3.9636,3.9767,3.9875,3.9955,4.0065,4.0126,4.0135,4.0153,4.015,4.0163,4.0042,4.0013,4.0144,4.0144,4.0144,4.0144,4.0144,4.0144,3.8888,3.9018,3.9058,3.9224,3.9288,3.9408,3.9464,3.9539,3.9609,3.9756,3.9847,3.9899,3.9983,4.01,4.0199,4.022,4.026,4.0277,4.0299,4.0184,4.0171,4.0158,4.0131,4.0285,4.0285,4.0412,4.0413,4.0414]}]]